This is the latest recevied weather packets stored in our database for station/object K9UO. If no packets are shown the sender has not sent any weather packets the latest 10 day(s).
| Time | Temp. | Humidity | Pressure | Rain* | Wind** | Luminosity | Snow |
|---|---|---|---|---|---|---|---|
| 1777845615 | 7.22° C | 1% | 1013 hPa | 0.51 mm | - | - | - |
| 1777844710 | 6.67° C | 1% | 1013.2 hPa | 0.51 mm | - | - | - |
| 1777843806 | 6.67° C | 1% | 1013.6 hPa | 0.76 mm | - | - | - |
| 1777842901 | 6.67° C | 1% | 1013.9 hPa | 0.76 mm | - | - | - |
| 1777842057 | 7.22° C | 1% | 1014.5 hPa | 0.25 mm | - | - | - |
| 1777841153 | 8.33° C | 1% | 1015.1 hPa | 0.25 mm | - | - | - |
| 1777840265 | 9.44° C | 33% | 1015.5 hPa | 0 mm | - | - | - |
| 1777839348 | 11.11° C | 59% | 1015.3 hPa | 0 mm | - | - | - |
| 1777838446 | 13.33° C | 49% | 1014.9 hPa | 0 mm | - | - | - |
| 1777837553 | 13.89° C | 45% | 1014.7 hPa | 0 mm | - | - | - |
| 1777836650 | 14.44° C | 45% | 1014.8 hPa | 0 mm | - | - | - |
| 1777835744 | 14.44° C | 43% | 1014.8 hPa | 0 mm | - | - | - |
| 1777834845 | 14.44° C | 44% | 1014.8 hPa | 0 mm | - | - | - |
| 1777833941 | 14.44° C | 43% | 1014.9 hPa | 0 mm | - | - | - |
| 1777833040 | 14.44° C | 42% | 1015.2 hPa | 0 mm | - | - | - |
| 1777832139 | 15° C | 43% | 1015.4 hPa | 0 mm | - | - | - |
| 1777831236 | 14.44° C | 44% | 1015.6 hPa | 0 mm | - | - | - |
| 1777830334 | 14.44° C | 45% | 1015.8 hPa | 0 mm | - | - | - |
| 1777829447 | 14.44° C | 44% | 1016.1 hPa | 0 mm | - | - | - |
| 1777828535 | 14.44° C | 43% | 1016.3 hPa | 0 mm | - | - | - |
| 1777827628 | 13.89° C | 44% | 1016.5 hPa | 0 mm | - | - | - |
| 1777826734 | 13.89° C | 46% | 1016.6 hPa | 0 mm | - | - | - |
| 1777825824 | 13.89° C | 43% | 1016.8 hPa | 0 mm | - | - | - |
| 1777824933 | 13.33° C | 45% | 1017.1 hPa | 0 mm | - | - | - |
| 1777824018 | 13.33° C | 51% | 1017.2 hPa | 0 mm | - | - | - |
* Rain latest hour (hover to see other rain measurements)
** Current wind speed in m/s (hover to see current wind gust speed)